Погода в Эльбе

Италия     42°46′43″N   10°17′15″E
темп.,
°C
ветер,
м/с
пор.,
м/с
влажн.,
%
обл.,
%
осадки,
мм/ч
давл.,
гПа
погр.,
м
11 мая, вт
вт1123:00+18юв813825 0.0 1013247
02:00+17ююв698324 0.0 1013215
05:00+17ююв91289100 0.4 1012453
08:00+17ю91293100 1.5 1012487
11:00+16ююв91196100 6.8 1011455
14:00+16ю81196100 10.3 1010534
17:00+14с8891100 5.3 1011388
20:00+15св5584100 6.9 1010295
12 мая, ср
ср1223:00+15юв23825 0.5 1010167
02:00+15вюв12760 0.9 1009112
05:00+16вюв43830 0.0 1008277
08:00+16ююв22810 0.0 1009258
11:00+16с54713 0.2 1010491
14:00+17зсз1012620 0.2 1009442
17:00+17ююз45660 0.0 1010336
20:00+17ююв56714 0.0 1010271
13 мая, чт
чт1323:00+17ю69740 0.0 1010401
02:00+16юв55742 0.0 1008358
05:00+15вюв65700 0.0 1007256
08:00+15юв557881 0.0 1007269
11:00+16ю33685 0.0 1007389
14:00+16ююз22620 0.0 1007302
17:00+17с55520 0.0 1006596
20:00+17сз34620 0.0 1006106
14 мая, пт
пт1423:00+17ю46681 0.0 1008201
02:00+16ююв45685 0.0 1009352
05:00+16юв6570100 0.0 1009347
08:00+15юв777498 0.0 1010448
11:00+16юв667352 0.0 1011465
14:00+16ююв566694 0.0 1011623
17:00+17ююв6774100 0.1 1010592
20:00+16ююз9108279 1.1 1010843
15 мая, сб
сб1523:00+16ююз998496 4.3 1010691
02:00+16ссз67775 7.7 1008480
05:00+15с89775 0.0 1008662
08:00+16зсз677112 0.0 1008545
11:00+16зюз66741 0.1 1010596
14:00+16зсз68700 0.1 1010870
17:00+16сз8106968 0.0 1011671
20:00+17зсз1013645 0.0 1011485